Date,TemperatureHighF,TemperatureAvgF,TemperatureLowF,DewpointHighF,DewpointAvgF,DewpointLowF,HumidityHigh,HumidityAvg,HumidityLow,PressureMaxIn,PressureMinIn,WindSpeedMaxMPH,WindSpeedAvgMPH,GustSpeedMaxMPH,PrecipitationSumIn
2013-3-1,71,71,70,58,57,57,64,62,61,30.12,30.08,23,10,29,0.00
2013-3-2,86,75,70,64,58,53,66,55,36,30.11,29.94,15,10,37,0.00
2013-3-3,86,75,71,66,58,54,68,56,38,30.09,30.02,15,10,41,0.00
2013-3-4,82,78,70,61,59,53,63,53,40,30.11,30.06,27,10,31,0.00
2013-3-5,77,77,77,60,60,60,54,54,54,30.09,30.09,10,10,14,0.00
2013-3-7,77,77,77,60,60,60,54,54,54,30.09,30.09,10,10,14,0.00
2013-3-9,74,73,72,67,63,61,78,70,66,29.92,29.89,4,2,20,0.00
2013-3-10,81,76,69,71,68,61,87,78,66,30.00,29.83,17,6,27,0.02
2013-3-11,79,73,64,68,65,58,90,78,67,30.05,29.94,7,3,13,0.13
2013-3-12,78,75,69,69,68,66,89,78,70,30.04,29.95,4,1,5,0.01
2013-3-13,79,74,67,67,64,60,78,71,65,30.04,29.95,6,3,13,0.00
2013-3-14,79,74,68,67,63,57,75,68,55,30.05,29.95,7,3,10,0.00
2013-3-15,77,74,71,69,67,63,87,79,71,29.98,29.91,9,4,13,0.00
2013-3-16,73,71,68,66,64,60,87,79,72,29.99,29.89,14,2,21,0.02
2013-3-17,78,72,67,64,60,55,77,66,51,30.00,29.90,9,3,14,0.00
2013-3-18,71,68,67,60,58,56,73,71,68,29.99,29.96,5,3,12,0.00
2013-3-19,78,72,64,65,59,52,71,64,53,30.01,29.92,9,4,12,0.00
2013-3-20,79,73,67,70,60,54,73,64,51,30.03,29.94,7,3,10,0.00
2013-3-21,79,74,68,71,64,58,78,70,62,30.03,29.96,8,4,13,0.00
2013-3-25,80,79,79,70,70,69,75,73,72,29.92,29.89,6,3,7,0.00
2013-3-26,79,75,69,71,67,62,84,76,68,30.01,29.91,7,2,11,0.00
2013-3-27,77,73,69,68,63,59,73,69,63,29.98,29.91,5,3,9,0.00
2013-3-28,78,74,71,66,62,56,73,66,55,29.98,29.92,6,4,18,0.00
2013-3-29,80,75,71,68,64,60,82,68,59,30.01,29.93,8,4,24,0.00
2013-3-30,79,74,68,69,66,61,81,76,66,30.03,29.93,6,2,9,0.00
2013-3-31,78,74,70,65,62,58,74,67,59,29.99,29.93,12,4,17,0.00